Погода в Малом Куналее

Россия / Республика Бурятия     50°36′05″N   107°49′48″E
темп.,
°C
ветер,
м/с
пор.,
м/с
влажн.,
%
обл.,
%
осадки,
мм/ч
давл.,
гПа
погр.,
м
9 марта, вт
вт923:00−7ююв22873 0.0 102621
02:00−7ююв22794 0.0 102625
05:00−7ююв22810 0.0 102431
08:00−7ю22790 0.0 102347
11:00+1юз15690 0.0 1019418
14:00+3зюз256727 0.0 1015546
17:000сз138195 0.0 1016227
20:00−5з128981 0.0 102221
10 марта, ср
ср1023:00−7з118836 0.0 102621
02:00−7ююз118731 0.0 102921
05:00−8ююз11860 0.0 103021
08:00−7ююв12870 0.0 103222
11:00−1ссв11730 0.0 1029384
14:00+1с12731 0.0 1026425
17:000ссв127922 0.0 1024310
20:00−4ююв227913 0.0 102524
11 марта, чт
чт1123:00−6ю12820 0.0 102622
02:00−6ююв12850 0.0 102623
05:00−7ю12865 0.0 102623
08:00−7ю12843 0.0 102824
11:000сз12700 0.0 1025287
14:00+3зсз12670 0.0 1023512
17:00+2юз13700 0.0 1022325
20:00−2ю34750 0.0 102557
12 марта, пт
пт1223:00−2ю35730 0.0 102576
02:00−3ю45710 0.0 1025100
05:00−3ю35690 0.0 102475
08:00−2ю48590 0.0 1023192
11:00+6ююз312490 0.0 1019765
14:00+7ююз4144537 0.0 10151140
17:00+4юз41350100 0.0 1015817
20:00−1юз1175100 0.0 101821
13 марта, сб
сб1323:00−2ю227463 0.0 101922
02:00−3ю236733 0.0 101831
05:00−2ю346659 0.0 101560
08:00−1ю355947 0.0 1013112
11:00+6юз28442 0.0 1008456
14:00+10ююз4123626 0.0 1003919
17:00+6зсз255775 0.0 1001181
20:00−3сз378687 0.0 1007563